Content
SEND FEEDBACK

Daily
Averages
Monthly
Summary
United States of America

ST. LOUIS - SAINT LOUIS UNIVERSITY, MISSOURI


Home > North America > United States > Missouri
Elevation: 580 feet     Latitude: 38 38N     Longitude: 090 14W

WEATHER
 
SELECT A DAY
Number of Records: 186,236;   Date Range: 1/1/95 - 8/28/14
 
SHARE

PRINT THIS DATA

[ ← Previous Day ]
WEATHER ALMANAC - JANUARY 19, 2013
[ Next Day → ]
[ °C ]   °F
Weather ElementAverageHighLow
Temperature51.2 °F64.9 °F (1:53 pm)41 °F (5:53 am)
Dewpoint29.5 °F34 °F (12:53 pm)26.1 °F (4:53 am)
Humidity44.5 %56 % (1:53 am)29 % (3:53 pm)
Barometer30.05 in30.16 in (1:53 am)29.92 in (1:53 pm)
Wind Speed10.5 mph16.1 mph (11:53 pm)
Wind Gust23 mph (9:53 am)
Weather ElementAverage
Visibility10 mi
Wind DirectionWSW (233.6 °)

Weather ElementTotal
Precipitation---
Heating Degree Days12.1 (Base 65)
Growing Degree Days3 (Base 50)
Averaged from 22 records on January 19, 2013
WEATHER CONDITIONS BREAKOUT
WIND DIRECTION BREAKOUT
WEATHER BY HOUR - JANUARY 19, 2013
[ °C ]   °F
Local TimeTemperatureDewpointHumidityBarometerVisibilityWind DirectionWind SpeedGust SpeedPrecipitationEventsConditions
1:53 AM43.0 °F28.0 °F56 %30.16 in10.0 miSSW (200°)9.2 mph17.3 mphClear
2:53 AM43.0 °F27.0 °F53 %30.15 in10.0 miSSW (200°)11.5 mph20.7 mphClear
3:53 AM42.1 °F27.0 °F55 %30.13 in10.0 miSSW (200°)8.1 mph18.4 mphClear
4:53 AM42.1 °F26.1 °F53 %30.12 in10.0 miSSW (200°)9.2 mph18.4 mphClear
5:53 AM41.0 °F26.1 °F55 %30.10 in10.0 miSSW (200°)10.4 mph19.6 mphClear
6:53 AM42.1 °F26.1 °F53 %30.09 in10.0 miSSW (210°)9.2 mphClear
7:53 AM43.0 °F26.1 °F51 %30.09 in10.0 miSSW (200°)12.7 mph19.6 mphClear
8:53 AM45.0 °F27.0 °F49 %30.09 in10.0 miSSW (210°)10.4 mph20.7 mphClear
9:53 AM48.0 °F28.0 °F46 %30.08 in10.0 miSSW (200°)11.5 mph23.0 mphClear
10:53 AM53.1 °F30.0 °F41 %30.03 in10.0 miSouth (190°)12.7 mph18.4 mphClear
11:53 AM57.0 °F32.0 °F39 %29.98 in10.0 miSSW (210°)9.2 mph19.6 mphClear
12:53 PM62.1 °F34.0 °F35 %29.94 in10.0 miSW (220°)9.2 mph19.6 mphClear
1:53 PM64.9 °F33.1 °F31 %29.92 in10.0 miWSW (250°)11.5 mph21.9 mphClear
3:53 PM64.9 °F32.0 °F29 %29.92 in10.0 miWest (260°)12.7 mph21.9 mphClear
4:53 PM62.1 °F30.0 °F30 %29.95 in10.0 miWest (260°)10.4 mph18.4 mphClear
5:53 PM57.0 °F30.0 °F36 %29.98 in10.0 miWSW (250°)5.8 mphClear
6:53 PM55.9 °F30.0 °F37 %30.01 in10.0 miWest (260°)6.9 mphClear
7:53 PM55.0 °F30.9 °F40 %30.04 in10.0 miWest (270°)10.4 mphClear
8:53 PM54.0 °F30.9 °F41 %30.06 in10.0 miWest (260°)6.9 mphClear
9:53 PM53.1 °F32.0 °F45 %30.08 in10.0 miWNW (290°)12.7 mphClear
10:53 PM48.9 °F32.0 °F52 %30.11 in10.0 miWNW (300°)15.0 mphClear
11:53 PM48.0 °F30.9 °F52 %30.13 in10.0 miWNW (300°)16.1 mph20.7 mphClear
Hourly data recorded from KCPS, located miles away from St. Louis - Saint Louis University, Missouri







STORIES FROM OUR PARTNERS